Date,TemperatureHighF,TemperatureAvgF,TemperatureLowF,DewpointHighF,DewpointAvgF,DewpointLowF,HumidityHigh,HumidityAvg,HumidityLow,PressureMaxIn,PressureMinIn,WindSpeedMaxMPH,WindSpeedAvgMPH,GustSpeedMaxMPH,PrecipitationSumIn
2012-12-1,65.8,46.8,33.4,39.9,24.6,18.9,66,45,20,30.30,30.21,6,1,12,0.00
2012-12-2,67.6,53.7,43.3,49.5,37.8,26.4,79,58,22,30.21,30.09,9,1,30,0.24
2012-12-3,72.3,59.8,51.8,50.5,39.6,30.0,81,52,22,30.21,30.12,5,1,12,0.00
2012-12-4,67.8,56.4,46.0,46.4,37.6,32.4,71,52,27,30.21,30.06,8,2,26,0.16
2012-12-5,57.2,46.2,34.7,38.8,25.0,12.6,73,48,19,30.30,30.18,5,1,9,0.00
2012-12-6,54.5,42.9,29.3,35.8,22.0,15.6,60,45,25,30.27,30.00,4,2,9,0.00
2012-12-7,55.9,52.2,49.1,48.2,43.5,35.6,81,72,57,30.00,29.88,4,0,7,0.24
2012-12-8,60.4,56.2,52.7,50.9,46.9,42.8,81,71,53,30.00,29.85,4,1,11,0.36
2012-12-9,59.9,55.5,51.4,54.9,49.1,45.0,84,79,59,30.00,29.76,4,2,11,0.60
2012-12-10,59.9,57.5,55.8,49.8,47.8,42.8,78,71,53,29.76,29.65,5,2,10,0.95
2012-12-11,37.9,34.4,28.2,14.4,11.8,8.6,55,39,31,30.24,30.09,3,0,9,0.00
2012-12-12,42.4,31.1,23.4,19.6,12.2,7.2,62,47,25,30.39,30.24,6,1,10,0.00
2012-12-13,48.9,32.7,22.1,20.5,12.3,8.6,61,45,21,30.39,30.27,4,0,8,0.00
2012-12-14,55.4,36.2,23.5,24.3,13.1,5.0,61,42,19,30.33,30.18,4,1,10,0.00
2012-12-15,59.7,45.7,32.9,26.6,19.6,14.0,59,38,19,30.18,29.85,7,2,18,0.00
2012-12-16,61.0,57.0,53.1,40.5,36.2,21.7,57,46,29,29.85,29.71,5,2,12,0.00
2012-12-17,57.6,52.0,42.3,47.1,39.5,34.2,76,63,44,29.76,29.56,4,1,11,0.48
2012-12-18,45.5,41.5,36.3,39.4,30.0,22.3,79,64,43,29.88,29.59,4,1,11,0.20
2012-12-19,55.6,45.5,38.1,27.7,23.1,18.7,54,42,25,30.06,29.79,4,1,10,0.00
2012-12-20,50.7,43.1,35.6,42.3,30.2,11.1,76,61,31,30.00,29.41,9,3,24,0.92
2012-12-21,35.1,30.4,28.2,18.0,11.9,7.5,61,46,37,30.03,29.62,8,5,28,0.00
2012-12-22,37.6,30.5,24.6,11.7,8.3,5.4,53,39,26,30.24,30.03,5,2,13,0.00
2012-12-23,51.3,35.7,22.6,14.7,10.6,6.3,59,38,21,30.09,29.91,6,2,14,0.00
2012-12-24,48.0,41.2,30.9,41.0,31.9,14.7,77,69,50,29.94,29.74,4,0,8,0.04
2012-12-25,45.1,37.2,33.8,38.3,19.6,13.5,77,49,37,30.15,29.94,7,3,12,0.00
2012-12-26,45.0,38.4,32.4,37.0,29.3,18.9,81,70,54,29.97,29.44,7,3,17,0.64
2012-12-27,32.7,31.3,29.7,18.7,13.7,10.4,57,48,43,30.15,29.85,5,2,14,0.00
2012-12-28,41.5,34.6,28.8,21.0,16.3,11.7,63,48,30,30.15,29.82,5,1,10,0.00
2012-12-29,35.4,32.7,28.0,28.0,21.8,10.0,75,64,46,30.18,29.68,5,1,14,0.00
2012-12-30,36.9,28.3,22.5,9.9,7.3,4.8,54,41,26,30.44,30.18,5,2,12,0.04
2012-12-31,38.3,30.6,20.7,19.2,12.0,8.2,61,47,29,30.36,30.06,4,1,10,0.04